Location: ?????
(54.9266°N, 38.5527°E)
Time: 20:16:55
(UTC+00:00)

deb REX - Pass Details

Date: 28 September 2024
Orbit: 705 x 731 km, 89.8° (Epoch: 09 October)

Event Time Altitude Azimuth Distance (km) Brightness Sun altitude
Rises 15:37:31 0° 202° (SSW) 3,126 ? -5.0°
Reaches altitude 10° 15:39:58 10° 211° (SSW) 2,205 ? -5.4°
Maximum altitude 15:44:30 37° 278° (W) 1,111 ? -6.0°
Drops below altitude 10° 15:49:02 10° 346° (NNW) 2,205 ? -6.7°
Sets 15:51:29 0° 355° (N) 3,125 ? -7.0°
